Regional Weather Roundup
Issued by NWS

Home | Current Version | Previous Version | Text Only | Print | Product List | Glossary Off
Versions: 1 2 3 4 5 6 7 8 9 10 11 12 13 14 15 16 17 18 19 20 21 22 23 24 25 26 27 28 29 30 31 32 33 34 35 36 37 38 39 40 41 42 43 44 45 46 47 48 49 50

000
ASUS43 KIND 011959
RWRIN

WEATHER ROUNDUP FOR INDIANA
NATIONAL WEATHER SERVICE INDIANAPOLIS IN
400 PM EDT WED APR 01 2015

NOTE: "FAIR" INDICATES FEW OR NO CLOUDS BELOW 12,000 FEET WITH NO
SIGNIFICANT WEATHER AND/OR OBSTRUCTIONS TO VISIBILITY.

* - STATION DOES NOT REPORT WEATHER SUCH AS PRECIPITATION OR FOG.

+ - STATION NOT QUALITY CONTROLLED BY THE NATIONAL WEATHER SERVICE.
    USE DATA WITH CAUTION...ESPECIALLY DEWPOINT AND RELATIVE
    HUMIDITY OBSERVATIONS.

INZ001>003-010>013-019-020-012100-
NORTHWEST INDIANA

CITY           SKY/WX    TMP DP  RH WIND       PRES   REMARKS
GARY /AIRPORT/ SUNNY     73  21  14 S12       29.97F

$$

LMZ046-743>745-012100-
SOUTHERN LAKE MICHIGAN

STATION/POSITION TIME  TEMP WIND        PRES
                       AIR  DIR/SP/G
                 (UTC) (F)  (DEG/KT/KT) (MB)
BURNS HARBOR     1900   67  180/ 11/ 15 1015.9F
MICHIGAN CITY    1900   42   40/ 12/ 13   N/A

$$

INZ004-005-014>016-021>024-012100-
NORTH CENTRAL INDIANA

CITY           SKY/WX    TMP DP  RH WIND       PRES   REMARKS
ELKHART        SUNNY     66  30  26 S6        30.02F
GOSHEN         SUNNY     67  37  33 SW9       30.02F
SOUTH BEND     SUNNY     69  31  24 S9        30.01F

$$

INZ006>009-017-018-025>027-012100-
NORTHEAST INDIANA

CITY           SKY/WX    TMP DP  RH WIND       PRES   REMARKS
ANGOLA *+      SUNNY     66  36  32 W6        30.04F
FORT WAYNE     SUNNY     66  35  31 SW10      30.05F

$$

INZ028-029-035-036-043>045-051>053-012100-
WEST CENTRAL INDIANA

CITY           SKY/WX    TMP DP  RH WIND       PRES   REMARKS
CRAWFORDSVL +  SUNNY     68  27  21 SE13      30.03F
GREENCASTLE +  SUNNY     68  30  24 S12       30.05F
LAFAYETTE      SUNNY     68  34  28 S10       30.02F
TERRE HAUTE    SUNNY     69  38  32 S10       30.04F

$$

INZ030>032-037>040-046>048-054>057-064-065-012100-
CENTRAL INDIANA

CITY           SKY/WX    TMP DP  RH WIND       PRES   REMARKS
ANDERSON       SUNNY     66  30  26 S12       30.07F
COLUMBUS       SUNNY     66  25  20 S7        30.08F
GREENWOOD *+   SUNNY     66  28  24 S9        30.07F
INDIANAPOLIS   MOSUNNY   67  31  26 S13       30.04F
-EAGLE CREEK   SUNNY     66  32  28 S9G16     30.05F
KOKOMO *+      SUNNY     66  37  34 S10G18    30.04F
MT COMFORT *+  SUNNY     66  14  13 S10G18    30.07S
SHELBYVILLE    SUNNY     68  35  29 S10G17    30.06F

$$

INZ033-034-041-042-049-050-058-059-012100-
EAST CENTRAL INDIANA

CITY           SKY/WX    TMP DP  RH WIND       PRES   REMARKS
MUNCIE         SUNNY     67  32  27 SW8       30.05F

$$

INZ060-061-067>069-081>083-085>088-012100-
SOUTHWEST INDIANA

CITY           SKY/WX    TMP DP  RH WIND       PRES   REMARKS
EVANSVILLE     SUNNY     71  38  29 SE8G18    30.04F
HUNTINGBURG *+ MOSUNNY   70  36  28 SE9       30.06F

$$

INZ062-063-066-070>080-084-089>092-012100-
SOUTH CENTRAL AND SOUTHEAST INDIANA

CITY           SKY/WX    TMP DP  RH WIND       PRES   REMARKS
BLOOMINGTON    SUNNY     68  32  26 SE13      30.06F
MADISON *+     SUNNY     66  23  19 CALM      30.10F
SEYMOUR +      SUNNY     70  37  30 S8        30.08F

$$



USA.gov is the U.S. government's official web portal to all federal, state and local government web resources and services.